Regional Weather Roundup
Issued by NWS

Home | Current Version | Previous Version | Graphics & Text | Print | Product List | Glossary On
Versions: 1 2 3 4 5 6 7 8 9 10 11 12 13 14 15 16 17 18 19 20 21 22 23 24 25 26 27 28 29 30 31 32 33 34 35 36 37 38 39 40 41 42 43 44 45 46 47 48 49 50
000
ASUS43 KIND 271859
RWRIN

WEATHER ROUNDUP FOR INDIANA
NATIONAL WEATHER SERVICE INDIANAPOLIS IN
200 PM EST FRI FEB 27 2015

NOTE: "FAIR" INDICATES FEW OR NO CLOUDS BELOW 12,000 FEET WITH NO
SIGNIFICANT WEATHER AND/OR OBSTRUCTIONS TO VISIBILITY.

* - STATION DOES NOT REPORT WEATHER SUCH AS PRECIPITATION OR FOG.

+ - STATION NOT QUALITY CONTROLLED BY THE NATIONAL WEATHER SERVICE.
    USE DATA WITH CAUTION...ESPECIALLY DEWPOINT AND RELATIVE
    HUMIDITY OBSERVATIONS.

INZ001>003-010>013-019-020-272000-
NORTHWEST INDIANA

CITY           SKY/WX    TMP DP  RH WIND       PRES   REMARKS
GARY /AIRPORT/ SUNNY     18  -8  32 W12       30.62  WCI   5
VALPARAISO     NOT AVBL

$$

LMZ046-743>745-272000-
SOUTHERN LAKE MICHIGAN

STATION/POSITION TIME  TEMP WIND        PRES
                       AIR  DIR/SP/G
                 (UTC) (F)  (DEG/KT/KT) (MB)
MICHIGAN CITY    1800   13  240/ 10/ 12   N/A

$$

INZ004-005-014>016-021>024-272000-
NORTH CENTRAL INDIANA

CITY           SKY/WX    TMP DP  RH WIND       PRES   REMARKS
ELKHART        MOSUNNY   16   0  48 W10       30.58F WCI   3
GOSHEN         SUNNY     15   1  53 W7        30.57F WCI   5
SOUTH BEND     SUNNY     17   2  51 SW9       30.58F WCI   6

$$

INZ006>009-017-018-025>027-272000-
NORTHEAST INDIANA

CITY           SKY/WX    TMP DP  RH WIND       PRES   REMARKS
ANGOLA *+      SUNNY     16   0  48 SW7       30.55S WCI   6
FORT WAYNE     MOSUNNY   17   0  47 W7        30.58F WCI   8

$$

INZ028-029-035-036-043>045-051>053-272000-
WEST CENTRAL INDIANA

CITY           SKY/WX    TMP DP  RH WIND       PRES   REMARKS
CRAWFORDSVL +  SUNNY     13  -8  38 NW6       30.61S WCI   4
GREENCASTLE +  MOSUNNY   18  -4  38 N7        30.60F WCI   8
LAFAYETTE      SUNNY     15  -2  46 VRB7G16   30.62F WCI   5
TERRE HAUTE    SUNNY     17   0  47 VRB6      30.63F WCI   9

$$

INZ030>032-037>040-046>048-054>057-064-065-272000-
CENTRAL INDIANA

CITY           SKY/WX    TMP DP  RH WIND       PRES   REMARKS
ANDERSON       MOSUNNY   18   3  53 NW12G17   30.59F WCI   5
GREENWOOD *+   SUNNY     18  -2  41 NW8       30.60F WCI   7
INDIANAPOLIS   MOSUNNY   17   2  51 W12       30.59F WCI   4
-EAGLE CREEK   SUNNY     16   0  49 NW10      30.60F WCI   4
KOKOMO *+      SUNNY     16   9  73 W9        30.60S WCI   4
MT COMFORT *+  SUNNY     19  -8  30 W10       30.59S WCI   8
SHELBYVILLE    MOSUNNY   19   3  49 SW10      30.59F WCI   7

$$

INZ033-034-041-042-049-050-058-059-272000-
EAST CENTRAL INDIANA

CITY           SKY/WX    TMP DP  RH WIND       PRES   REMARKS
MUNCIE         SUNNY     15   3  59 NW8       30.58F WCI   4

$$

INZ060-061-067>069-081>083-085>088-272000-
SOUTHWEST INDIANA

CITY           SKY/WX    TMP DP  RH WIND       PRES   REMARKS
EVANSVILLE     PTSUNNY   22   9  57 N7        30.63F WCI  13
HUNTINGBURG *+ MOSUNNY   23  10  58 N6        30.62F WCI  16

$$

INZ062-063-066-070>080-084-089>092-272000-
SOUTH CENTRAL AND SOUTHEAST INDIANA

CITY           SKY/WX    TMP DP  RH WIND       PRES   REMARKS
BLOOMINGTON    MOSUNNY   19   1  45 CALM      30.59F
SEYMOUR +      MOSUNNY   25   3  39 CALM      30.61F

$$




USA.gov is the U.S. government's official web portal to all federal, state and local government web resources and services.